Time,TemperatureF,DewpointF,PressureIn,WindDirection,WindDirectionDegrees,WindSpeedMPH,WindSpeedGustMPH,Humidity,HourlyPrecipIn,Conditions,Clouds,dailyrainin,SoftwareType,DateUTC
2013-07-20 00:01:00,74.7,71.2,30.00,SW,225,5.8,5.8,89,0.00,RA,,0.00,WeatherDisplay:10.37,2013-07-20 04:01:00,
2013-07-20 00:06:00,74.7,70.9,30.00,SW,225,8.1,8.1,88,0.00,RA,,0.00,WeatherDisplay:10.37,2013-07-20 04:06:00,
2013-07-20 00:11:00,74.5,70.7,30.00,SSW,202,5.8,5.8,88,0.00,CLR,,0.00,WeatherDisplay:10.37,2013-07-20 04:11:00,
2013-07-20 00:16:00,74.5,70.7,30.00,WSW,248,8.1,8.1,88,0.00,CLR,,0.00,WeatherDisplay:10.37,2013-07-20 04:16:00,
2013-07-20 00:21:00,74.1,70.3,30.00,SSW,202,4.6,4.6,88,0.00,CLR,,0.00,WeatherDisplay:10.37,2013-07-20 04:21:00,
2013-07-20 00:26:00,74.1,70.3,30.00,SSE,158,5.8,5.8,88,0.00,CLR,,0.00,WeatherDisplay:10.37,2013-07-20 04:26:00,
2013-07-20 00:31:00,73.9,70.2,30.00,South,180,6.9,6.9,88,0.00,CLR,,0.00,WeatherDisplay:10.37,2013-07-20 04:31:00,
2013-07-20 00:36:00,73.8,70.3,30.00,SSW,202,5.6,5.6,89,0.00,CLR,,0.00,WeatherDisplay:10.37,2013-07-20 04:36:00,
2013-07-20 00:41:00,73.6,70.1,30.00,SSW,202,5.8,5.8,89,0.00,CLR,,0.00,WeatherDisplay:10.37,2013-07-20 04:41:00,
2013-07-20 00:46:00,73.6,70.1,30.00,South,180,3.5,3.8,89,0.00,CLR,,0.00,WeatherDisplay:10.37,2013-07-20 04:46:00,
2013-07-20 00:51:00,73.2,70.1,30.00,ESE,112,5.4,5.4,90,0.00,CLR,,0.00,WeatherDisplay:10.37,2013-07-20 04:51:00,
2013-07-20 00:56:00,73.0,69.9,30.00,WNW,292,3.5,3.6,90,0.00,CLR,,0.00,WeatherDisplay:10.37,2013-07-20 04:56:00,
2013-07-20 01:01:00,73.0,69.9,30.00,SSW,202,2.6,2.6,90,0.00,CLR,,0.00,WeatherDisplay:10.37,2013-07-20 05:01:00,
2013-07-20 01:06:00,72.9,69.8,30.00,SSE,158,3.5,3.5,90,0.00,CLR,,0.00,WeatherDisplay:10.37,2013-07-20 05:06:00,
2013-07-20 01:11:00,72.9,70.1,30.00,SSW,202,6.9,6.9,91,0.00,CLR,,0.00,WeatherDisplay:10.37,2013-07-20 05:11:00,
2013-07-20 01:16:00,72.9,70.1,30.00,SSW,202,4.6,4.6,91,0.00,CLR,,0.00,WeatherDisplay:10.37,2013-07-20 05:16:00,
2013-07-20 01:21:00,72.7,69.9,30.00,SSW,202,6.9,6.9,91,0.00,CLR,,0.00,WeatherDisplay:10.37,2013-07-20 05:21:00,
2013-07-20 01:26:00,72.7,69.9,30.00,WNW,292,5.8,5.8,91,0.00,CLR,,0.00,WeatherDisplay:10.37,2013-07-20 05:26:00,
2013-07-20 01:31:00,72.7,70.2,30.00,NNW,338,5.8,5.8,92,0.00,CLR,,0.00,WeatherDisplay:10.37,2013-07-20 05:31:00,
2013-07-20 01:36:00,72.7,70.2,30.00,SSE,158,3.5,3.5,92,0.00,CLR,,0.00,WeatherDisplay:10.37,2013-07-20 05:36:00,
2013-07-20 01:41:00,72.5,70.0,30.00,South,180,3.5,3.5,92,0.00,CLR,,0.00,WeatherDisplay:10.37,2013-07-20 05:41:00,
2013-07-20 01:46:00,72.5,70.0,29.97,SSW,202,3.5,3.5,92,0.00,CLR,,0.00,WeatherDisplay:10.37,2013-07-20 05:46:00,
2013-07-20 01:51:00,72.5,70.0,29.97,SSW,202,3.5,3.5,92,0.00,CLR,,0.00,WeatherDisplay:10.37,2013-07-20 05:51:00,
2013-07-20 01:56:00,72.3,69.9,29.97,South,180,2.3,2.4,92,0.00,CLR,,0.00,WeatherDisplay:10.37,2013-07-20 05:56:00,
2013-07-20 02:01:00,72.3,70.2,30.00,SSE,158,4.6,4.6,93,0.00,CLR,,0.00,WeatherDisplay:10.37,2013-07-20 06:01:00,
2013-07-20 02:07:00,72.3,70.2,30.00,South,180,6.0,6.0,93,0.00,CLR,,0.00,WeatherDisplay:10.37,2013-07-20 06:07:00,
2013-07-20 02:12:00,72.1,70.0,30.00,SSE,158,5.9,5.9,93,0.00,CLR,,0.00,WeatherDisplay:10.37,2013-07-20 06:12:00,
2013-07-20 02:17:00,72.1,70.0,30.00,South,180,4.6,4.6,93,0.00,CLR,,0.00,WeatherDisplay:10.37,2013-07-20 06:17:00,
2013-07-20 02:22:00,72.0,69.8,30.00,South,180,3.8,3.8,93,0.00,CLR,,0.00,WeatherDisplay:10.37,2013-07-20 06:22:00,
2013-07-20 02:27:00,71.8,70.0,30.00,WNW,292,5.8,5.8,94,0.00,CLR,,0.00,WeatherDisplay:10.37,2013-07-20 06:27:00,
2013-07-20 02:32:00,71.8,70.0,29.97,SSW,202,3.8,3.8,94,0.00,CLR,,0.00,WeatherDisplay:10.37,2013-07-20 06:32:00,
2013-07-20 02:37:00,71.8,70.0,29.97,South,180,3.5,3.5,94,0.00,CLR,,0.00,WeatherDisplay:10.37,2013-07-20 06:37:00,
2013-07-20 02:42:00,71.6,69.8,29.97,West,270,4.6,4.6,94,0.00,CLR,,0.00,WeatherDisplay:10.37,2013-07-20 06:42:00,
2013-07-20 02:47:00,71.6,69.8,29.97,SSE,158,7.4,7.4,94,0.00,CLR,,0.00,WeatherDisplay:10.37,2013-07-20 06:47:00,
2013-07-20 02:52:00,71.6,70.1,29.97,SSE,158,2.9,2.9,95,0.00,CLR,,0.00,WeatherDisplay:10.37,2013-07-20 06:52:00,
2013-07-20 02:57:00,71.6,70.1,29.97,SSE,158,4.6,4.6,95,0.00,CLR,,0.00,WeatherDisplay:10.37,2013-07-20 06:57:00,
2013-07-20 03:02:00,71.6,70.1,29.97,WSW,248,4.6,4.6,95,0.00,CLR,,0.00,WeatherDisplay:10.37,2013-07-20 07:02:00,
2013-07-20 03:07:00,71.6,70.1,29.97,SSE,158,4.6,4.6,95,0.00,CLR,,0.00,WeatherDisplay:10.37,2013-07-20 07:07:00,
2013-07-20 03:12:00,71.8,70.3,29.97,SSW,202,8.1,8.1,95,0.00,CLR,,0.00,WeatherDisplay:10.37,2013-07-20 07:12:00,
2013-07-20 03:17:00,71.6,70.1,29.94,SSW,202,4.6,4.6,95,0.00,CLR,,0.00,WeatherDisplay:10.37,2013-07-20 07:17:00,
2013-07-20 03:22:00,71.6,70.1,29.94,SSE,158,6.0,6.0,95,0.00,CLR,,0.00,WeatherDisplay:10.37,2013-07-20 07:22:00,
2013-07-20 03:27:00,71.6,70.1,29.94,SSW,202,4.6,4.6,95,0.00,CLR,,0.00,WeatherDisplay:10.37,2013-07-20 07:27:00,
2013-07-20 03:32:00,71.6,70.1,29.94,SSW,202,5.8,5.8,95,0.00,CLR,,0.00,WeatherDisplay:10.37,2013-07-20 07:32:00,
2013-07-20 03:37:00,71.6,70.1,29.94,SSW,202,4.6,4.6,95,0.00,CLR,,0.00,WeatherDisplay:10.37,2013-07-20 07:37:00,
2013-07-20 03:42:00,72.0,70.8,29.94,WNW,292,4.6,4.6,96,0.00,CLR,,0.00,WeatherDisplay:10.37,2013-07-20 07:42:00,
2013-07-20 03:47:00,72.0,70.8,29.94,South,180,5.8,5.8,96,0.00,CLR,,0.00,WeatherDisplay:10.37,2013-07-20 07:47:00,
2013-07-20 03:52:00,72.0,70.4,29.94,NNW,338,4.6,4.6,95,0.00,CLR,,0.00,WeatherDisplay:10.37,2013-07-20 07:52:00,
2013-07-20 03:57:00,72.0,70.4,29.94,WNW,292,5.8,5.8,95,0.00,CLR,,0.00,WeatherDisplay:10.37,2013-07-20 07:57:00,
2013-07-20 04:02:00,72.0,70.4,29.94,WSW,248,3.5,3.5,95,0.00,CLR,,0.00,WeatherDisplay:10.37,2013-07-20 08:02:00,
2013-07-20 04:07:00,72.0,70.4,29.94,SSW,202,3.1,3.1,95,0.00,CLR,,0.00,WeatherDisplay:10.37,2013-07-20 08:07:00,
2013-07-20 04:12:00,71.8,70.3,29.94,WSW,248,4.6,4.6,95,0.00,CLR,,0.00,WeatherDisplay:10.37,2013-07-20 08:12:00,
2013-07-20 04:17:00,72.0,70.8,29.94,SSW,202,6.9,6.9,96,0.00,CLR,,0.00,WeatherDisplay:10.37,2013-07-20 08:17:00,
2013-07-20 04:22:00,71.8,70.6,29.94,SSE,158,3.6,3.6,96,0.00,CLR,,0.00,WeatherDisplay:10.37,2013-07-20 08:22:00,
2013-07-20 04:27:00,72.0,70.8,29.94,SSW,202,3.5,3.5,96,0.00,CLR,,0.00,WeatherDisplay:10.37,2013-07-20 08:27:00,
2013-07-20 04:32:00,72.0,70.8,29.94,SSE,158,4.9,4.9,96,0.00,CLR,,0.00,WeatherDisplay:10.37,2013-07-20 08:32:00,
2013-07-20 04:37:00,72.0,70.8,29.94,SSW,202,5.8,5.8,96,0.00,CLR,,0.00,WeatherDisplay:10.37,2013-07-20 08:37:00,
2013-07-20 04:42:00,72.0,70.8,29.94,SSW,202,4.7,4.7,96,0.00,CLR,,0.00,WeatherDisplay:10.37,2013-07-20 08:42:00,
2013-07-20 04:47:00,72.0,70.8,29.94,SSW,202,4.6,4.6,96,0.00,CLR,,0.00,WeatherDisplay:10.37,2013-07-20 08:47:00,
2013-07-20 04:52:00,72.0,70.8,29.94,SSE,158,4.6,4.6,96,0.00,CLR,,0.00,WeatherDisplay:10.37,2013-07-20 08:52:00,
2013-07-20 04:57:00,71.8,70.6,29.94,South,180,2.3,2.4,96,0.00,CLR,,0.00,WeatherDisplay:10.37,2013-07-20 08:57:00,
2013-07-20 05:02:00,71.8,70.6,29.94,South,180,3.5,3.5,96,0.00,CLR,,0.00,WeatherDisplay:10.37,2013-07-20 09:02:00,
2013-07-20 05:07:00,71.8,70.6,29.94,South,180,3.5,3.5,96,0.00,CLR,,0.00,WeatherDisplay:10.37,2013-07-20 09:07:00,
2013-07-20 05:12:00,71.6,70.4,29.94,SSW,202,3.5,3.5,96,0.00,CLR,,0.00,WeatherDisplay:10.37,2013-07-20 09:12:00,
2013-07-20 05:17:00,71.6,70.4,29.94,SSW,202,4.6,4.6,96,0.00,CLR,,0.00,WeatherDisplay:10.37,2013-07-20 09:17:00,
2013-07-20 05:22:00,71.6,70.4,29.94,SSW,202,2.3,2.4,96,0.00,CLR,,0.00,WeatherDisplay:10.37,2013-07-20 09:22:00,
2013-07-20 05:27:00,71.6,70.4,29.94,South,180,4.6,4.6,96,0.00,CLR,,0.00,WeatherDisplay:10.37,2013-07-20 09:27:00,
2013-07-20 05:32:00,71.6,70.4,29.94,SSW,202,5.8,5.8,96,0.00,CLR,,0.00,WeatherDisplay:10.37,2013-07-20 09:32:00,
2013-07-20 05:37:00,71.6,70.4,29.94,SSE,158,4.6,4.6,96,0.00,CLR,,0.00,WeatherDisplay:10.37,2013-07-20 09:37:00,
2013-07-20 05:42:00,71.8,70.6,29.94,SSW,202,5.8,5.8,96,0.00,CLR,,0.00,WeatherDisplay:10.37,2013-07-20 09:42:00,
2013-07-20 05:47:00,71.8,70.6,29.94,South,180,4.6,4.6,96,0.00,CLR,,0.00,WeatherDisplay:10.37,2013-07-20 09:47:00,
2013-07-20 05:52:00,72.0,70.8,29.94,WSW,248,6.9,6.9,96,0.00,CLR,,0.00,WeatherDisplay:10.37,2013-07-20 09:52:00,
2013-07-20 05:57:00,72.0,70.8,29.94,SSE,158,5.8,5.8,96,0.00,CLR,,0.00,WeatherDisplay:10.37,2013-07-20 09:57:00,
2013-07-20 06:02:00,71.8,70.6,29.94,South,180,5.8,5.8,96,0.00,CLR,,0.00,WeatherDisplay:10.37,2013-07-20 10:02:00,
2013-07-20 06:07:00,71.8,70.6,29.94,WNW,292,6.9,6.9,96,0.00,CLR,,0.00,WeatherDisplay:10.37,2013-07-20 10:07:00,
2013-07-20 06:12:00,71.8,70.6,29.94,WSW,248,3.5,3.5,96,0.00,CLR,,0.00,WeatherDisplay:10.37,2013-07-20 10:12:00,
2013-07-20 06:17:00,71.8,70.6,29.94,WNW,292,3.3,3.3,96,0.00,CLR,,0.00,WeatherDisplay:10.37,2013-07-20 10:17:00,
2013-07-20 06:22:00,71.8,70.6,29.94,SSW,202,3.1,3.1,96,0.00,CLR,,0.00,WeatherDisplay:10.37,2013-07-20 10:22:00,
2013-07-20 06:27:00,71.8,70.6,29.94,SW,225,5.8,5.8,96,0.00,CLR,,0.00,WeatherDisplay:10.37,2013-07-20 10:27:00,
2013-07-20 06:32:00,71.8,70.6,29.97,SSE,158,4.6,4.6,96,0.00,CLR,,0.00,WeatherDisplay:10.37,2013-07-20 10:32:00,
2013-07-20 06:37:00,71.8,70.6,29.97,SSE,158,3.5,3.5,96,0.00,CLR,,0.00,WeatherDisplay:10.37,2013-07-20 10:37:00,
2013-07-20 06:42:00,72.0,70.8,29.97,SSW,202,4.6,4.6,96,0.00,CLR,,0.00,WeatherDisplay:10.37,2013-07-20 10:42:00,
2013-07-20 06:47:00,72.1,70.9,29.97,SSW,202,5.8,5.8,96,0.00,CLR,,0.00,WeatherDisplay:10.37,2013-07-20 10:47:00,
2013-07-20 06:52:00,72.3,71.1,29.97,WNW,292,3.5,3.5,96,0.00,CLR,,0.00,WeatherDisplay:10.37,2013-07-20 10:52:00,
2013-07-20 06:57:00,72.5,71.3,29.97,SSE,158,2.4,2.4,96,0.00,CLR,,0.00,WeatherDisplay:10.37,2013-07-20 10:57:00,
2013-07-20 07:02:00,72.5,71.3,29.97,SSW,202,5.8,5.8,96,0.00,CLR,,0.00,WeatherDisplay:10.37,2013-07-20 11:02:00,
2013-07-20 07:07:00,72.9,71.3,29.97,South,180,5.4,5.4,95,0.00,CLR,,0.00,WeatherDisplay:10.37,2013-07-20 11:07:00,
2013-07-20 07:12:00,73.0,71.5,29.97,SSW,202,4.6,4.6,95,0.00,CLR,,0.00,WeatherDisplay:10.37,2013-07-20 11:12:00,
2013-07-20 07:17:00,73.4,71.6,29.97,SSW,202,4.6,4.6,94,0.00,CLR,,0.00,WeatherDisplay:10.37,2013-07-20 11:17:00,
2013-07-20 07:22:00,73.8,71.9,29.97,SW,225,4.6,4.6,94,0.00,CLR,,0.00,WeatherDisplay:10.37,2013-07-20 11:22:00,
2013-07-20 07:28:00,73.9,71.8,29.97,SSW,202,5.6,5.6,93,0.00,CLR,,0.00,WeatherDisplay:10.37,2013-07-20 11:28:00,
2013-07-20 07:33:00,74.1,72.0,30.00,South,180,8.1,8.1,93,0.00,CLR,,0.00,WeatherDisplay:10.37,2013-07-20 11:33:00,
2013-07-20 07:38:00,74.5,72.0,30.00,ESE,112,4.6,4.6,92,0.00,CLR,,0.00,WeatherDisplay:10.37,2013-07-20 11:38:00,
2013-07-20 07:43:00,74.7,72.2,30.00,SSE,158,6.9,6.9,92,0.00,CLR,,0.00,WeatherDisplay:10.37,2013-07-20 11:43:00,
2013-07-20 07:48:00,74.8,72.4,29.97,SSW,202,5.6,5.6,92,0.00,CLR,,0.00,WeatherDisplay:10.37,2013-07-20 11:48:00,
2013-07-20 07:53:00,75.0,72.2,29.97,SSW,202,5.8,5.8,91,0.00,CLR,,0.00,WeatherDisplay:10.37,2013-07-20 11:53:00,
2013-07-20 07:58:00,75.2,72.1,29.97,SSE,158,5.8,5.8,90,0.00,CLR,,0.00,WeatherDisplay:10.37,2013-07-20 11:58:00,
2013-07-20 08:03:00,75.6,72.4,29.97,SSW,202,5.9,5.9,90,0.00,CLR,,0.00,WeatherDisplay:10.37,2013-07-20 12:03:00,
2013-07-20 08:08:00,75.7,72.3,29.97,SSW,202,5.8,5.8,89,0.00,CLR,,0.00,WeatherDisplay:10.37,2013-07-20 12:08:00,
2013-07-20 08:13:00,76.3,72.8,29.97,SSW,202,6.9,6.9,89,0.00,CLR,,0.00,WeatherDisplay:10.37,2013-07-20 12:13:00,
2013-07-20 08:18:00,76.3,72.5,29.97,SSE,158,5.9,5.9,88,0.00,CLR,,0.00,WeatherDisplay:10.37,2013-07-20 12:18:00,
2013-07-20 08:23:00,76.8,73.0,29.97,SSE,158,5.6,5.6,88,0.00,CLR,,0.00,WeatherDisplay:10.37,2013-07-20 12:23:00,
2013-07-20 08:28:00,77.2,73.0,29.97,WSW,248,3.5,3.5,87,0.00,CLR,,0.00,WeatherDisplay:10.37,2013-07-20 12:28:00,
2013-07-20 08:33:00,76.8,72.7,29.97,WSW,248,4.6,4.6,87,0.00,CLR,,0.00,WeatherDisplay:10.37,2013-07-20 12:33:00,
2013-07-20 08:38:00,77.9,73.0,29.97,WSW,248,5.8,5.8,85,0.00,CLR,,0.00,WeatherDisplay:10.37,2013-07-20 12:38:00,
2013-07-20 08:43:00,79.3,74.1,29.97,WNW,292,3.5,3.5,84,0.00,CLR,,0.00,WeatherDisplay:10.37,2013-07-20 12:43:00,
2013-07-20 08:48:00,79.0,73.0,29.97,West,270,4.9,4.9,82,0.00,CLR,,0.00,WeatherDisplay:10.37,2013-07-20 12:48:00,
2013-07-20 08:53:00,78.1,72.5,29.97,WSW,248,4.9,4.9,83,0.00,CLR,,0.00,WeatherDisplay:10.37,2013-07-20 12:53:00,
2013-07-20 08:58:00,77.4,72.1,29.97,SSW,202,3.5,3.5,84,0.00,CLR,,0.00,WeatherDisplay:10.37,2013-07-20 12:58:00,
2013-07-20 09:03:00,76.8,72.0,29.97,WNW,292,3.3,3.3,85,0.00,CLR,,0.00,WeatherDisplay:10.37,2013-07-20 13:03:00,
2013-07-20 09:08:00,76.8,72.3,29.97,SSW,202,2.3,2.3,86,0.00,CLR,,0.00,WeatherDisplay:10.37,2013-07-20 13:08:00,
2013-07-20 09:13:00,77.0,72.5,29.97,WNW,292,2.3,2.3,86,0.00,CLR,,0.00,WeatherDisplay:10.37,2013-07-20 13:13:00,
2013-07-20 09:18:00,76.8,72.3,29.97,WNW,292,3.5,3.5,86,0.00,CLR,,0.00,WeatherDisplay:10.37,2013-07-20 13:18:00,
2013-07-20 09:23:00,76.5,72.3,29.97,NNW,338,0.9,0.0,87,0.00,CLR,,0.00,WeatherDisplay:10.37,2013-07-20 13:23:00,
2013-07-20 09:28:00,76.3,72.1,29.97,WSW,248,2.3,2.3,87,0.00,CLR,,0.00,WeatherDisplay:10.37,2013-07-20 13:28:00,
2013-07-20 09:33:00,76.3,72.1,30.00,WNW,292,2.3,2.3,87,0.00,CLR,,0.00,WeatherDisplay:10.37,2013-07-20 13:33:00,
2013-07-20 09:38:00,75.9,72.1,30.00,WNW,292,2.3,2.4,88,0.00,CLR,,0.00,WeatherDisplay:10.37,2013-07-20 13:38:00,
2013-07-20 09:43:00,75.7,71.9,30.00,WNW,292,3.5,3.5,88,0.00,CLR,,0.00,WeatherDisplay:10.37,2013-07-20 13:43:00,
2013-07-20 09:48:00,75.0,70.5,30.00,NNE,22,5.8,5.8,86,0.00,CLR,,0.00,WeatherDisplay:10.37,2013-07-20 13:48:00,
2013-07-20 09:53:00,74.3,69.8,30.00,WNW,292,3.5,3.5,86,0.00,CLR,,0.00,WeatherDisplay:10.37,2013-07-20 13:53:00,
2013-07-20 09:58:00,73.8,70.0,30.00,SSW,202,2.3,2.3,88,0.00,CLR,,0.00,WeatherDisplay:10.37,2013-07-20 13:58:00,
2013-07-20 10:03:00,73.6,69.8,30.00,ENE,68,2.3,2.3,88,0.00,CLR,,0.00,WeatherDisplay:10.37,2013-07-20 14:03:00,
2013-07-20 10:08:00,73.4,70.0,30.00,SSE,158,3.5,3.5,89,0.00,CLR,,0.00,WeatherDisplay:10.37,2013-07-20 14:08:00,
2013-07-20 10:13:00,73.2,69.8,30.00,ENE,68,4.6,4.6,89,0.00,CLR,,0.00,WeatherDisplay:10.37,2013-07-20 14:13:00,
2013-07-20 10:18:00,73.8,70.3,29.97,NNW,338,1.4,1.4,89,0.00,CLR,,0.00,WeatherDisplay:10.37,2013-07-20 14:18:00,
2013-07-20 10:23:00,74.5,71.0,29.97,ESE,112,2.4,2.4,89,0.00,CLR,,0.00,WeatherDisplay:10.37,2013-07-20 14:23:00,
2013-07-20 10:28:00,75.9,71.8,29.97,ENE,68,1.2,0.0,87,0.00,CLR,,0.00,WeatherDisplay:10.37,2013-07-20 14:28:00,
2013-07-20 10:33:00,74.7,70.5,29.97,ESE,112,4.6,4.6,87,0.00,CLR,,0.00,WeatherDisplay:10.37,2013-07-20 14:33:00,
2013-07-20 10:38:00,74.3,70.5,29.97,SSE,158,4.6,4.6,88,0.00,CLR,,0.00,WeatherDisplay:10.37,2013-07-20 14:38:00,
2013-07-20 10:43:00,74.3,70.8,29.97,ESE,112,3.5,3.5,89,0.00,CLR,,0.00,WeatherDisplay:10.37,2013-07-20 14:43:00,
2013-07-20 10:48:00,74.5,71.0,30.00,ENE,68,5.8,5.8,89,0.00,CLR,,0.00,WeatherDisplay:10.37,2013-07-20 14:48:00,
2013-07-20 10:53:00,74.7,70.9,30.00,SE,135,4.6,4.6,88,0.00,CLR,,0.00,WeatherDisplay:10.37,2013-07-20 14:53:00,
2013-07-20 10:58:00,74.5,70.7,30.00,ESE,112,2.3,0.0,88,0.00,CLR,,0.00,WeatherDisplay:10.37,2013-07-20 14:58:00,
2013-07-20 11:03:00,74.3,70.5,30.00,ENE,68,2.3,2.3,88,0.00,CLR,,0.00,WeatherDisplay:10.37,2013-07-20 15:03:00,
2013-07-20 11:08:00,74.3,70.8,30.00,ESE,112,2.3,2.3,89,0.00,CLR,,0.00,WeatherDisplay:10.37,2013-07-20 15:08:00,
2013-07-20 11:13:00,73.9,70.5,30.00,ESE,112,3.5,3.5,89,0.00,CLR,,0.00,WeatherDisplay:10.37,2013-07-20 15:13:00,
2013-07-20 11:18:00,74.1,71.0,30.00,ESE,112,3.5,3.5,90,0.00,CLR,,0.00,WeatherDisplay:10.37,2013-07-20 15:18:00,
2013-07-20 11:23:00,74.7,71.2,30.00,SSE,158,4.6,4.6,89,0.00,CLR,,0.00,WeatherDisplay:10.37,2013-07-20 15:23:00,
2013-07-20 11:28:00,75.0,71.9,30.00,ENE,68,2.3,2.3,90,0.00,CLR,,0.00,WeatherDisplay:10.37,2013-07-20 15:28:00,
2013-07-20 11:33:00,74.8,71.4,30.00,ENE,68,3.5,3.5,89,0.00,CLR,,0.00,WeatherDisplay:10.37,2013-07-20 15:33:00,
2013-07-20 11:38:00,75.2,72.1,30.00,NNW,338,1.4,0.0,90,0.04,RA,,0.04,WeatherDisplay:10.37,2013-07-20 15:38:00,
2013-07-20 11:43:00,74.3,70.2,30.00,WNW,292,8.1,8.1,87,0.04,RA,,0.04,WeatherDisplay:10.37,2013-07-20 15:43:00,
2013-07-20 11:48:00,73.2,68.1,30.00,NNW,338,4.6,4.6,84,0.04,CLR,,0.04,WeatherDisplay:10.37,2013-07-20 15:48:00,
2013-07-20 11:53:00,72.7,68.2,30.00,WSW,248,2.3,2.3,86,0.04,CLR,,0.04,WeatherDisplay:10.37,2013-07-20 15:53:00,
2013-07-20 11:58:00,72.3,67.9,30.00,NNW,338,4.9,4.9,86,0.04,CLR,,0.04,WeatherDisplay:10.37,2013-07-20 15:58:00,
2013-07-20 12:03:00,71.8,67.7,30.00,ENE,68,3.6,3.6,87,0.04,CLR,,0.04,WeatherDisplay:10.37,2013-07-20 16:03:00,
2013-07-20 12:08:00,71.4,67.7,30.00,West,270,12.1,12.1,88,0.04,CLR,,0.04,WeatherDisplay:10.37,2013-07-20 16:08:00,
2013-07-20 12:13:00,70.3,67.3,30.00,NNW,338,13.8,13.8,90,0.08,RA,,0.08,WeatherDisplay:10.37,2013-07-20 16:13:00,
2013-07-20 12:18:00,69.3,67.1,29.97,NNW,338,5.8,5.8,93,0.34,RA,,0.37,WeatherDisplay:10.37,2013-07-20 16:18:00,
2013-07-20 12:23:00,69.3,67.5,29.97,ENE,68,1.2,0.0,94,0.37,RA,,0.37,WeatherDisplay:10.37,2013-07-20 16:23:00,
2013-07-20 12:29:00,70.2,68.4,29.97,ESE,112,2.4,2.4,94,0.37,RA,,0.37,WeatherDisplay:10.37,2013-07-20 16:29:00,
2013-07-20 12:34:00,70.7,68.9,29.97,ESE,112,5.8,5.8,94,0.37,CLR,,0.37,WeatherDisplay:10.37,2013-07-20 16:34:00,
2013-07-20 12:39:00,70.5,69.0,29.97,SSE,158,5.8,5.8,95,0.33,CLR,,0.37,WeatherDisplay:10.37,2013-07-20 16:39:00,
2013-07-20 12:44:00,71.1,69.6,29.97,WNW,292,2.6,2.6,95,0.33,CLR,,0.37,WeatherDisplay:10.37,2013-07-20 16:44:00,
2013-07-20 12:49:00,71.2,69.7,30.00,SSW,202,2.9,2.9,95,0.33,CLR,,0.37,WeatherDisplay:10.37,2013-07-20 16:49:00,
2013-07-20 12:54:00,71.4,69.9,30.00,SSE,158,4.6,4.6,95,0.33,CLR,,0.37,WeatherDisplay:10.37,2013-07-20 16:54:00,
2013-07-20 12:59:00,72.5,70.7,30.00,SSE,158,5.8,5.8,94,0.33,CLR,,0.37,WeatherDisplay:10.37,2013-07-20 16:59:00,
2013-07-20 13:04:00,72.7,70.2,30.00,ESE,112,4.6,4.7,92,0.33,CLR,,0.37,WeatherDisplay:10.37,2013-07-20 17:04:00,
2013-07-20 13:09:00,72.7,70.2,30.00,WSW,248,4.3,4.3,92,0.33,CLR,,0.37,WeatherDisplay:10.37,2013-07-20 17:09:00,
2013-07-20 13:14:00,72.3,69.9,30.00,WSW,248,6.9,6.9,92,0.29,CLR,,0.37,WeatherDisplay:10.37,2013-07-20 17:14:00,
2013-07-20 13:19:00,73.8,71.3,30.00,WNW,292,5.8,5.8,92,0.03,CLR,,0.37,WeatherDisplay:10.37,2013-07-20 17:19:00,
2013-07-20 13:24:00,74.5,71.7,30.00,NNW,338,4.3,4.3,91,0.00,CLR,,0.37,WeatherDisplay:10.37,2013-07-20 17:24:00,
2013-07-20 13:29:00,73.9,70.5,30.00,WNW,292,5.8,5.9,89,0.00,CLR,,0.37,WeatherDisplay:10.37,2013-07-20 17:29:00,
2013-07-20 13:34:00,73.6,70.1,30.00,SSW,202,10.4,10.4,89,0.00,CLR,,0.37,WeatherDisplay:10.37,2013-07-20 17:34:00,
2013-07-20 13:39:00,73.2,70.1,30.00,WSW,248,5.8,5.8,90,0.00,CLR,,0.37,WeatherDisplay:10.37,2013-07-20 17:39:00,
2013-07-20 13:44:00,72.3,68.6,30.00,WNW,292,2.3,2.6,88,0.00,CLR,,0.37,WeatherDisplay:10.37,2013-07-20 17:44:00,
2013-07-20 13:49:00,72.1,69.0,29.94,WNW,292,4.9,4.9,90,0.00,CLR,,0.37,WeatherDisplay:10.37,2013-07-20 17:49:00,
2013-07-20 13:54:00,71.1,67.7,29.94,WSW,248,13.8,13.8,89,0.00,CLR,,0.37,WeatherDisplay:10.37,2013-07-20 17:54:00,
2013-07-20 13:59:00,70.3,67.3,29.94,WSW,248,4.6,4.6,90,0.00,CLR,,0.37,WeatherDisplay:10.37,2013-07-20 17:59:00,
2013-07-20 14:04:00,70.0,67.2,29.97,South,180,4.6,4.6,91,0.00,CLR,,0.37,WeatherDisplay:10.37,2013-07-20 18:04:00,
2013-07-20 14:09:00,70.2,67.7,29.97,South,180,2.3,2.3,92,0.00,CLR,,0.37,WeatherDisplay:10.37,2013-07-20 18:09:00,
2013-07-20 14:14:00,70.2,68.0,29.97,SSE,158,3.5,3.5,93,0.00,CLR,,0.37,WeatherDisplay:10.37,2013-07-20 18:14:00,
2013-07-20 14:19:00,70.5,68.7,29.97,SSW,202,4.6,4.6,94,0.00,CLR,,0.37,WeatherDisplay:10.37,2013-07-20 18:19:00,
2013-07-20 14:24:00,71.6,69.5,29.97,WSW,248,1.4,1.4,93,0.00,CLR,,0.37,WeatherDisplay:10.37,2013-07-20 18:24:00,
2013-07-20 14:29:00,72.0,69.5,29.97,NW,315,6.2,6.2,92,0.00,CLR,,0.37,WeatherDisplay:10.37,2013-07-20 18:29:00,
2013-07-20 14:35:00,73.4,70.3,29.97,NW,320,3.0,10.0,90,0.00,CLR,,0.37,WeatherDisplay:10.37,2013-07-20 18:35:00,
2013-07-20 14:40:00,75.2,70.7,29.97,NW,320,3.0,6.0,86,0.00,CLR,,0.37,WeatherDisplay:10.37,2013-07-20 18:40:00,
2013-07-20 14:45:00,75.1,69.6,29.97,NW,325,2.0,6.0,83,0.00,CLR,,0.37,WeatherDisplay:10.37,2013-07-20 18:45:00,
2013-07-20 14:50:00,74.9,69.8,29.94,NNW,336,2.0,5.0,84,0.00,CLR,,0.37,WeatherDisplay:10.37,2013-07-20 18:50:00,
2013-07-20 14:55:00,74.3,68.1,29.94,NW,312,6.0,8.0,81,0.00,CLR,,0.37,WeatherDisplay:10.37,2013-07-20 18:55:00,
2013-07-20 15:00:00,75.6,70.0,29.94,NNW,338,3.5,3.5,83,0.00,CLR,,0.37,WeatherDisplay:10.37,2013-07-20 19:00:00,
2013-07-20 15:05:00,77.5,70.5,29.97,NNW,338,5.8,5.8,79,0.00,CLR,,0.37,WeatherDisplay:10.37,2013-07-20 19:05:00,
2013-07-20 15:10:00,78.8,71.4,29.97,NW,320,3.0,6.0,78,0.00,CLR,,0.37,WeatherDisplay:10.37,2013-07-20 19:10:00,
2013-07-20 15:15:00,79.0,70.4,29.97,NW,316,2.0,4.0,75,0.00,CLR,,0.37,WeatherDisplay:10.37,2013-07-20 19:15:00,
2013-07-20 15:20:00,79.5,71.2,29.97,North,355,0.0,5.0,76,0.00,CLR,,0.37,WeatherDisplay:10.37,2013-07-20 19:20:00,
2013-07-20 15:25:00,80.7,72.0,29.97,ENE,65,1.0,3.0,75,0.00,CLR,,0.37,WeatherDisplay:10.37,2013-07-20 19:25:00,
2013-07-20 15:30:00,82.0,72.5,29.97,NE,47,0.0,2.0,73,0.00,CLR,,0.37,WeatherDisplay:10.37,2013-07-20 19:30:00,
2013-07-20 15:35:00,82.9,72.1,29.94,ENE,71,1.0,3.0,70,0.00,CLR,,0.37,WeatherDisplay:10.37,2013-07-20 19:35:00,
2013-07-20 15:41:00,83.7,72.0,29.94,South,180,2.3,2.3,68,0.00,CLR,,0.37,WeatherDisplay:10.37,2013-07-20 19:41:00,
2013-07-20 15:47:00,85.3,71.3,29.94,ESE,112,3.5,3.5,63,0.00,CLR,,0.37,WeatherDisplay:10.37,2013-07-20 19:47:00,
2013-07-20 15:52:00,86.5,72.9,29.94,WSW,248,2.3,2.3,64,0.00,CLR,,0.37,WeatherDisplay:10.37,2013-07-20 19:52:00,
2013-07-20 15:57:00,85.5,71.9,29.94,ENE,68,1.2,0.0,64,0.00,CLR,,0.37,WeatherDisplay:10.37,2013-07-20 19:57:00,
2013-07-20 16:02:00,83.8,70.4,29.97,SSE,158,3.5,3.5,64,0.00,CLR,,0.37,WeatherDisplay:10.37,2013-07-20 20:02:00,
2013-07-20 16:07:00,83.5,70.0,29.97,NNW,338,3.6,3.6,64,0.00,CLR,,0.37,WeatherDisplay:10.37,2013-07-20 20:07:00,
2013-07-20 16:12:00,82.4,68.1,29.97,WNW,292,3.5,3.5,62,0.00,CLR,,0.37,WeatherDisplay:10.37,2013-07-20 20:12:00,
2013-07-20 16:17:00,81.9,68.5,29.97,WSW,248,2.6,2.6,64,0.00,CLR,,0.37,WeatherDisplay:10.37,2013-07-20 20:17:00,
2013-07-20 16:23:00,81.3,68.4,29.97,WNW,292,4.6,4.6,65,0.00,CLR,,0.37,WeatherDisplay:10.37,2013-07-20 20:23:00,
2013-07-20 16:29:00,79.9,68.4,29.97,South,180,3.5,3.5,68,0.00,CLR,,0.37,WeatherDisplay:10.37,2013-07-20 20:29:00,
2013-07-20 16:34:00,79.2,68.9,29.97,SSW,202,3.5,3.5,71,0.00,CLR,,0.37,WeatherDisplay:10.37,2013-07-20 20:34:00,
2013-07-20 16:39:00,79.2,68.5,29.97,South,180,2.3,0.0,70,0.00,CLR,,0.37,WeatherDisplay:10.37,2013-07-20 20:39:00,
2013-07-20 16:45:00,79.3,69.1,29.97,SSW,202,2.3,2.3,71,0.00,CLR,,0.37,WeatherDisplay:10.37,2013-07-20 20:45:00,
2013-07-20 16:50:00,78.6,69.2,29.97,South,182,1.0,3.0,73,0.00,CLR,,0.37,WeatherDisplay:10.37,2013-07-20 20:50:00,
2013-07-20 16:55:00,77.7,69.5,29.97,SSE,158,2.6,2.6,76,0.00,CLR,,0.37,WeatherDisplay:10.37,2013-07-20 20:55:00,
2013-07-20 17:00:00,77.4,69.6,29.97,SSE,163,0.0,3.0,77,0.00,CLR,,0.37,WeatherDisplay:10.37,2013-07-20 21:00:00,
2013-07-20 17:05:00,77.0,70.0,29.97,ESE,112,4.6,4.6,79,0.00,CLR,,0.37,WeatherDisplay:10.37,2013-07-20 21:05:00,
2013-07-20 17:10:00,76.8,70.2,29.97,SE,129,2.0,4.0,80,0.00,CLR,,0.37,WeatherDisplay:10.37,2013-07-20 21:10:00,
2013-07-20 17:15:00,76.6,70.4,29.97,SSE,148,0.0,3.0,81,0.00,CLR,,0.37,WeatherDisplay:10.37,2013-07-20 21:15:00,
2013-07-20 17:20:00,76.4,70.1,29.97,South,180,3.0,3.0,81,0.00,CLR,,0.37,WeatherDisplay:10.37,2013-07-20 21:20:00,
2013-07-20 17:25:00,76.1,70.2,29.97,South,176,3.0,5.0,82,0.00,CLR,,0.37,WeatherDisplay:10.37,2013-07-20 21:25:00,
2013-07-20 17:30:00,76.1,70.6,29.97,SSE,164,1.0,5.0,83,0.00,CLR,,0.37,WeatherDisplay:10.37,2013-07-20 21:30:00,
2013-07-20 17:35:00,75.7,70.6,29.97,SSE,158,3.0,6.0,84,0.00,CLR,,0.37,WeatherDisplay:10.37,2013-07-20 21:35:00,
2013-07-20 17:40:00,75.5,70.4,29.97,SSE,156,3.0,6.0,84,0.00,CLR,,0.37,WeatherDisplay:10.37,2013-07-20 21:40:00,
2013-07-20 17:46:00,75.4,70.6,29.97,ESE,112,5.8,5.8,85,0.00,CLR,,0.37,WeatherDisplay:10.37,2013-07-20 21:46:00,
2013-07-20 17:51:00,75.0,70.2,30.00,SSE,158,4.6,4.6,85,0.00,CLR,,0.37,WeatherDisplay:10.37,2013-07-20 21:51:00,
2013-07-20 17:56:00,74.5,70.0,30.00,SSE,158,5.8,5.8,86,0.00,CLR,,0.37,WeatherDisplay:10.37,2013-07-20 21:56:00,
2013-07-20 18:01:00,74.5,70.0,30.00,SSE,158,2.3,2.3,86,0.00,CLR,,0.37,WeatherDisplay:10.37,2013-07-20 22:01:00,
2013-07-20 18:07:00,74.3,70.2,29.97,South,180,1.6,1.6,87,0.00,CLR,,0.37,WeatherDisplay:10.37,2013-07-20 22:07:00,
2013-07-20 18:13:00,74.1,70.0,29.97,SSE,158,3.5,3.5,87,0.00,CLR,,0.37,WeatherDisplay:10.37,2013-07-20 22:13:00,
2013-07-20 18:19:00,73.9,70.2,29.97,SSW,202,2.6,2.6,88,0.00,CLR,,0.37,WeatherDisplay:10.37,2013-07-20 22:19:00,
2013-07-20 18:24:00,73.9,70.2,29.97,NNW,338,2.3,2.3,88,0.00,CLR,,0.37,WeatherDisplay:10.37,2013-07-20 22:24:00,
2013-07-20 18:29:00,73.9,70.2,29.97,WSW,248,2.4,2.4,88,0.00,CLR,,0.37,WeatherDisplay:10.37,2013-07-20 22:29:00,
2013-07-20 18:35:00,74.1,70.3,29.97,WSW,249,1.0,2.0,88,0.00,CLR,,0.37,WeatherDisplay:10.37,2013-07-20 22:35:00,
2013-07-20 18:40:00,74.0,70.5,29.97,West,263,2.0,3.0,89,0.00,CLR,,0.37,WeatherDisplay:10.37,2013-07-20 22:40:00,
2013-07-20 18:45:00,73.9,70.2,29.97,SW,225,1.0,4.0,88,0.00,CLR,,0.37,WeatherDisplay:10.37,2013-07-20 22:45:00,
2013-07-20 18:50:00,73.9,70.2,29.97,SSW,202,3.5,3.5,88,0.00,CLR,,0.37,WeatherDisplay:10.37,2013-07-20 22:50:00,
2013-07-20 18:56:00,73.9,70.2,29.97,South,180,3.5,3.5,88,0.00,CLR,,0.37,WeatherDisplay:10.37,2013-07-20 22:56:00,
2013-07-20 19:01:00,73.9,70.2,29.97,SSE,158,2.9,2.9,88,0.00,CLR,,0.37,WeatherDisplay:10.37,2013-07-20 23:01:00,
2013-07-20 19:06:00,73.9,70.5,29.94,WSW,248,2.3,2.3,89,0.00,CLR,,0.37,WeatherDisplay:10.37,2013-07-20 23:06:00,
2013-07-20 19:12:00,73.9,70.5,29.94,SSE,158,2.3,2.3,89,0.00,CLR,,0.37,WeatherDisplay:10.37,2013-07-20 23:12:00,
2013-07-20 19:17:00,73.8,70.3,29.97,South,180,3.5,3.5,89,0.00,CLR,,0.37,WeatherDisplay:10.37,2013-07-20 23:17:00,
2013-07-20 19:22:00,73.8,70.3,29.97,SSE,158,2.3,2.3,89,0.00,CLR,,0.37,WeatherDisplay:10.37,2013-07-20 23:22:00,
2013-07-20 19:27:00,73.6,70.1,29.97,SE,135,2.0,0.0,89,0.00,CLR,,0.37,WeatherDisplay:10.37,2013-07-20 23:27:00,
2013-07-20 19:33:00,73.6,70.5,29.94,SSE,158,3.6,3.6,90,0.00,CLR,,0.37,WeatherDisplay:10.37,2013-07-20 23:33:00,
2013-07-20 19:38:00,73.6,70.5,29.94,SSW,202,2.3,0.0,90,0.00,CLR,,0.37,WeatherDisplay:10.37,2013-07-20 23:38:00,
2013-07-20 19:43:00,73.6,70.8,29.94,SW,225,3.5,3.5,91,0.00,CLR,,0.37,WeatherDisplay:10.37,2013-07-20 23:43:00,
2013-07-20 19:48:00,73.4,70.6,29.97,SSE,158,3.5,3.5,91,0.00,CLR,,0.37,WeatherDisplay:10.37,2013-07-20 23:48:00,
2013-07-20 19:53:00,73.4,70.3,29.97,SSW,202,4.6,4.6,90,0.00,CLR,,0.37,WeatherDisplay:10.37,2013-07-20 23:53:00,
2013-07-20 19:58:00,73.2,70.1,29.97,SSE,158,4.6,4.6,90,0.00,CLR,,0.37,WeatherDisplay:10.37,2013-07-20 23:58:00,
2013-07-20 20:03:00,73.0,68.9,29.94,SW,225,4.6,4.6,87,0.00,CLR,,0.37,WeatherDisplay:10.37,2013-07-21 00:03:00,
2013-07-20 20:09:00,72.9,69.1,29.94,WNW,292,4.6,4.6,88,0.00,CLR,,0.37,WeatherDisplay:10.37,2013-07-21 00:09:00,
2013-07-20 20:14:00,72.7,68.9,29.94,SSE,158,4.6,4.6,88,0.00,CLR,,0.37,WeatherDisplay:10.37,2013-07-21 00:14:00,
2013-07-20 20:19:00,72.7,68.9,29.97,WNW,292,4.9,4.9,88,0.00,CLR,,0.37,WeatherDisplay:10.37,2013-07-21 00:19:00,
2013-07-20 20:24:00,72.5,68.4,29.97,West,270,3.5,3.5,87,0.00,CLR,,0.37,WeatherDisplay:10.37,2013-07-21 00:24:00,
2013-07-20 20:29:00,72.3,68.6,29.97,SSW,202,3.5,3.5,88,0.00,CLR,,0.37,WeatherDisplay:10.37,2013-07-21 00:29:00,
2013-07-20 20:35:00,72.1,68.4,29.97,SW,233,2.0,3.0,88,0.00,CLR,,0.37,WeatherDisplay:10.37,2013-07-21 00:35:00,
2013-07-20 20:40:00,72.0,68.2,29.97,SSW,202,3.5,3.5,88,0.00,CLR,,0.37,WeatherDisplay:10.37,2013-07-21 00:40:00,
2013-07-20 20:45:00,71.8,68.4,29.97,WSW,249,2.0,5.0,89,0.00,CLR,,0.37,WeatherDisplay:10.37,2013-07-21 00:45:00,
2013-07-20 20:50:00,71.6,68.2,29.97,WSW,248,2.3,2.3,89,0.00,CLR,,0.37,WeatherDisplay:10.37,2013-07-21 00:50:00,
2013-07-20 20:55:00,71.4,68.3,29.97,WSW,237,1.0,4.0,90,0.00,CLR,,0.37,WeatherDisplay:10.37,2013-07-21 00:55:00,
2013-07-20 21:00:00,71.4,68.3,29.97,SSW,207,2.0,4.0,90,0.00,CLR,,0.37,WeatherDisplay:10.37,2013-07-21 01:00:00,
2013-07-20 21:05:00,71.2,68.5,29.97,SSW,196,3.0,5.0,91,0.00,CLR,,0.37,WeatherDisplay:10.37,2013-07-21 01:05:00,
2013-07-20 21:11:00,71.1,68.3,29.97,SSW,202,2.9,2.9,91,0.00,CLR,,0.37,WeatherDisplay:10.37,2013-07-21 01:11:00,
2013-07-20 21:16:00,71.1,68.3,29.97,WNW,292,2.3,2.3,91,0.00,CLR,,0.37,WeatherDisplay:10.37,2013-07-21 01:16:00,
2013-07-20 21:22:00,71.1,68.3,29.97,SSW,202,2.4,2.4,91,0.00,CLR,,0.37,WeatherDisplay:10.37,2013-07-21 01:22:00,
2013-07-20 21:27:00,70.9,68.1,29.97,West,270,3.5,3.5,91,0.00,CLR,,0.37,WeatherDisplay:10.37,2013-07-21 01:27:00,
2013-07-20 21:32:00,70.9,68.4,29.97,South,180,3.5,3.5,92,0.00,CLR,,0.37,WeatherDisplay:10.37,2013-07-21 01:32:00,
2013-07-20 21:37:00,70.9,68.4,29.97,SSW,202,3.8,3.8,92,0.00,CLR,,0.37,WeatherDisplay:10.37,2013-07-21 01:37:00,
2013-07-20 21:42:00,70.7,68.3,29.97,SSE,158,4.6,4.6,92,0.00,CLR,,0.37,WeatherDisplay:10.37,2013-07-21 01:42:00,
2013-07-20 21:47:00,70.7,68.3,29.97,SSE,158,3.5,3.5,92,0.00,CLR,,0.37,WeatherDisplay:10.37,2013-07-21 01:47:00,
2013-07-20 21:53:00,70.5,68.4,29.97,SSE,158,2.9,2.9,93,0.00,CLR,,0.37,WeatherDisplay:10.37,2013-07-21 01:53:00,
2013-07-20 21:58:00,70.5,68.4,29.97,SSW,202,2.3,2.3,93,0.00,CLR,,0.37,WeatherDisplay:10.37,2013-07-21 01:58:00,
2013-07-20 22:03:00,70.5,68.4,29.97,SSW,202,3.5,3.5,93,0.00,CLR,,0.37,WeatherDisplay:10.37,2013-07-21 02:03:00,
2013-07-20 22:09:00,70.5,68.4,29.97,SSW,202,1.6,0.0,93,0.00,CLR,,0.37,WeatherDisplay:10.37,2013-07-21 02:09:00,
2013-07-20 22:14:00,70.3,68.2,29.97,SSE,158,0.0,0.0,93,0.00,CLR,,0.37,WeatherDisplay:10.37,2013-07-21 02:14:00,
2013-07-20 22:19:00,70.3,68.2,29.97,SSW,202,2.3,2.3,93,0.00,CLR,,0.37,WeatherDisplay:10.37,2013-07-21 02:19:00,
2013-07-20 22:25:00,70.3,68.2,29.97,South,175,1.0,3.0,93,0.00,CLR,,0.37,WeatherDisplay:10.37,2013-07-21 02:25:00,
2013-07-20 22:30:00,70.3,68.5,29.97,South,180,2.0,3.0,94,0.00,CLR,,0.37,WeatherDisplay:10.37,2013-07-21 02:30:00,
2013-07-20 22:35:00,70.2,68.4,30.00,SSE,158,2.3,2.3,94,0.00,CLR,,0.37,WeatherDisplay:10.37,2013-07-21 02:35:00,
2013-07-20 22:40:00,70.2,68.4,30.00,SSW,202,2.3,2.4,94,0.00,CLR,,0.37,WeatherDisplay:10.37,2013-07-21 02:40:00,
2013-07-20 22:45:00,70.2,68.7,30.00,SSE,158,4.6,4.6,95,0.00,CLR,,0.37,WeatherDisplay:10.37,2013-07-21 02:45:00,
2013-07-20 22:51:00,70.2,68.7,30.00,SSE,158,3.5,3.5,95,0.00,CLR,,0.37,WeatherDisplay:10.37,2013-07-21 02:51:00,
2013-07-20 22:56:00,70.0,68.5,30.00,South,180,2.3,2.3,95,0.00,CLR,,0.37,WeatherDisplay:10.37,2013-07-21 02:56:00,
2013-07-20 23:01:00,70.2,68.7,30.00,SSW,202,2.3,2.3,95,0.00,CLR,,0.37,WeatherDisplay:10.37,2013-07-21 03:01:00,
2013-07-20 23:06:00,70.2,68.4,30.00,SSW,202,4.6,4.6,94,0.00,CLR,,0.37,WeatherDisplay:10.37,2013-07-21 03:06:00,
2013-07-20 23:12:00,70.0,68.2,30.00,SSW,202,1.6,1.6,94,0.00,CLR,,0.37,WeatherDisplay:10.37,2013-07-21 03:12:00,
2013-07-20 23:18:00,70.0,68.2,30.00,WSW,248,2.3,2.3,94,0.00,CLR,,0.37,WeatherDisplay:10.37,2013-07-21 03:18:00,
2013-07-20 23:23:00,70.0,67.9,30.00,SSW,202,2.3,2.3,93,0.00,CLR,,0.37,WeatherDisplay:10.37,2013-07-21 03:23:00,
2013-07-20 23:28:00,70.0,67.9,30.00,SSE,158,3.5,3.5,93,0.00,CLR,,0.37,WeatherDisplay:10.37,2013-07-21 03:28:00,
2013-07-20 23:33:00,69.8,67.7,30.00,South,180,3.5,3.5,93,0.00,CLR,,0.37,WeatherDisplay:10.37,2013-07-21 03:33:00,
2013-07-20 23:38:00,69.6,67.5,30.00,WNW,292,2.3,2.3,93,0.00,CLR,,0.37,WeatherDisplay:10.37,2013-07-21 03:38:00,
2013-07-20 23:43:00,69.6,67.5,30.00,WSW,248,2.3,2.3,93,0.00,CLR,,0.37,WeatherDisplay:10.37,2013-07-21 03:43:00,
2013-07-20 23:48:00,69.4,67.3,30.00,WNW,292,2.3,2.3,93,0.00,CLR,,0.37,WeatherDisplay:10.37,2013-07-21 03:48:00,
2013-07-20 23:54:00,69.3,67.1,30.00,WNW,292,2.3,2.3,93,0.00,CLR,,0.37,WeatherDisplay:10.37,2013-07-21 03:54:00,
2013-07-20 23:59:00,69.3,67.1,30.00,WSW,248,0.0,0.0,93,0.00,CLR,,0.37,WeatherDisplay:10.37,2013-07-21 03:59:00,